CLOUDSAT                
1 29107U 06016A   19264.51138544  .00000076  00000-0  24414-4 0  9997
2 29107  98.1944 208.2231 0002466 120.0107 240.1339 14.62333285713047
CALIPSO                 
1 29108U 06016B   19264.85312237  .00000076  00000-0  24362-4 0  9990
2 29108  98.1937 208.3792 0001268  75.1140 285.0202 14.62335965712930
DELTA 2 DEB [DPAF]      
1 29110U 06016D   19264.49473420  .00000425  00000-0  71042-4 0  9990
2 29110  98.3061  18.0964 0003571  35.1675  30.4291 14.75049255718000